RH
86 84 86 87 89 90 90 93 90 90 85 89 92 88 86 88 86 100 90 97 92 98 92 93 53 53 46 54 82 79 80 79 91 87 87 88 79 68 75 64 68 65 86 90 95 90 63 46 30 38 47 48 49 51
82 84 87 88 87 90 89 87 97 98 85 89 88 90 82 92 84 99 90 98 98 97 93 93 79 75 74 42 80 83 60 71 82 84 95 95 89 90 74 86 61 62 64 75 73 73 52 40 39 47 51 59 61 73
86 89 86 82 83 82 92 95 95 98 93 95 97 86 86 97 94 91 81 97 88 92 90 96 87 64 64 49 36 77 80 66 78 76 94 95 74 86 82 82 63 49 62 69 62 65 71 74 67 67 68 68 64 64
85 84 77 80 82 84 87 78 80 92 95 90 90 95 88 84 86 86 85 88 74 94 100 92 73 68 61 60 39 36 58 67 82 86 99 100 87 73 86 64 64 62 54 57 77 75 70 71 70 66 67 65 66 65
70 67 67 78 82 79 77 73 74 74 89 87 76 75 71 86 93 94 87 85 90 99 100 97 76 64 67 58 62 48 65 78 84 81 94 85 88 86 87 77 69 56 57 67 73 66 74 79 75 69 71 72 69 73
76 76 71 67 72 76 75 75 78 88 82 82 84 89 93 90 87 86 94 84 77 91 100 100 91 88 74 82 93 75 85 88 87 82 99 88 77 78 84 87 65 67 68 65 79 71 77 78 74 70 77 76 75 78
84 80 79 78 76 80 78 79 82 96 97 99 95 94 93 91 91 84 87 81 66 87 98 100 98 95 85 89 96 95 93 98 95 95 96 84 84 90 97 88 72 69 70 73 71 72 83 76 87 78 80 81 82 84
80 89 91 86 79 80 80 91 91 92 87 83 84 84 86 98 84 90 88 100 99 92 96 100 99 100 83 98 99 97 97 97 98 97 96 93 96 96 92 78 73 76 76 75 77 73 76 75 75 79 78 76 82 88
80 76 73 76 82 94 86 86 82 80 80 83 90 83 95 100 94 76 78 100 95 95 99 100 100 100 88 98 98 94 95 100 95 100 99 89 98 99 87 79 76 75 76 82 76 75 76 80 81 80 78 78 86 88
100 98 92 86 83 87 85 86 84 83 85 100 100 98 100 98 92 71 92 99 99 97 92 100 97 100 91 99 99 100 100 100 98 98 93 100 99 86 92 90 81 77 74 75 88 92 86 86 85 79 80 81 82 87
100 100 99 92 89 92 98 98 97 100 100 98 99 100 100 88 93 99 99 98 96 99 97 98 97 99 96 99 100 100 100 99 97 95 95 100 99 93 88 90 88 79 74 76 71 74 71 74 78 83 85 88 96 98
100 100 100 99 92 88 88 88 94 97 94 93 94 94 94 95 96 94 99 96 97 100 98 100 100 97 99 90 99 98 96 94 98 92 96 98 99 94 91 90 85 78 71 70 69 73 71 72 76 81 91 98 97 98
100 100 100 100 99 99 97 90 99 82 86 77 91 96 87 97 96 93 99 98 98 100 100 100 100 100 95 93 100 95 95 96 93 92 91 99 97 90 85 79 74 72 75 75 77 79 84 89 91 91 92 95 98 90
98 100 100 100 94 95 100 98 82 72 64 95 93 98 98 99 99 100 100 99 99 100 100 100 100 100 100 100 100 93 100 95 99 100 95 99 96 91 80 76 76 80 84 84 84 88 93 96 98 95 83 75 80 83
72 80 84 90 93 93 77 60 50 53 92 98 95 98 98 100 99 99 100 100 99 100 100 100 100 97 100 99 98 98 98 91 97 97 99 99 95 86 83 78 82 85 87 88 86 90 92 87 85 88 78 73 74 65
66 60 72 68 62 57 56 47 55 74 97 95 98 98 99 98 98 98 98 99 99 100 100 99 100 96 99 98 98 98 86 98 99 99 100 96 88 82 79 81 82 83 85 88 90 86 86 84 78 77 60 59 70 65
46 64 62 65 58 59 57 67 79 98 94 97 99 100 99 99 99 99 100 99 99 100 100 99 96 99 99 98 98 99 98 99 99 99 99 95 89 93 96 96 97 98 98 99 98 87 81 76 76 76 71 64 69 69
70 58 43 40 48 50 66 81 93 93 99 99 99 99 99 99 99 99 99 98 99 99 99 99 98 96 96 96 97 98 99 99 100 100 99 98 98 99 98 97 98 99 99 92 85 82 74 74 66 72 79 73 70 84
63 59 40 37 38 56 85 87 83 98 99 100 99 99 100 98 97 94 97 98 97 93 97 97 95 96 96 96 97 96 98 99 99 99 99 99 99 99 99 100 100 100 99 86 79 80 78 74 75 75 79 76 85 86
34 46 54 49 43 74 84 91 77 96 98 99 99 97 98 98 95 81 78 79 82 86 91 95 96 96 96 96 96 97 97 99 99 98 98 99 100 100 99 98 98 98 95 86 78 78 83 89 90 86 83 75 76 97
23 35 38 57 63 71 94 95 96 98 99 98 98 96 97 88 76 81 87 78 77 95 94 96 96 96 96 96 97 97 95 95 94 99 99 97 98 98 97 98 98 97 95 95 94 96 96 96 96 94 82 80 87 96
43 45 44 47 79 77 85 78 92 92 89 95 91 93 95 97 98 95 89 88 94 95 96 95 92 87 86 90 94 97 98 94 96 95 96 92 93 94 94 96 95 95 96 96 96 96 96 96 86 94 90 80 81 96
41 50 65 65 82 80 83 72 80 80 88 90 88 88 94 96 98 89 95 89 94 94 96 86 85 86 88 89 89 93 97 92 93 95 95 96 96 96 96 97 97 95 95 97 95 95 96 92 91 92 85 75 85 88
55 81 94 96 89 99 87 86 85 64 78 84 90 85 90 98 93 92 97 97 92 88 89 91 86 82 79 83 89 94 98 93 94 96 97 95 93 96 97 97 96 96 96 96 93 91 92 93 89 83 78 84 90 89
80 90 83 86 87 81 86 86 87 90 92 94 93 91 86 93 94 98 97 96 94 95 94 94 86 89 91 92 92 96 97 92 95 94 99 97 98 97 97 96 93 91 79 77 91 92 92 90 90 91 91 91 98 99
88 95 83 76 79 81 85 90 88 93 95 91 90 91 95 92 94 98 94 96 98 96 97 97 96 92 92 92 89 94 97 92 82 92 98 90 93 94 97 96 86 91 95 83 76 79 88 86 89 86 83 96 99 95
82 96 90 91 94 90 92 92 91 94 100 100 100 98 94 98 99 96 95 96 95 97 96 96 97 96 96 98 97 93 83 79 80 91 89 84 82 81 75 80 88 94 95 96 93 91 94 99 97 98 92 86 86 92
90 87 89 83 84 90 81 92 99 98 100 95 94 99 97 98 97 96 95 97 96 93 88 86 88 87 77 62 66 76 94 97 95 92 91 90 86 83 99 100 100 100 97 97 99 100 97 100 100 99 95 92 96 90
84 92 88 93 94 96 98 97 98 98 92 95 97 98 98 92 96 96 96 96 95 86 94 97 100 93 90 85 80 72 53 53 65 98 100 100 90 84 95 99 100 100 100 100 97 89 87 95 91 89 92 98 96 94
84 93 92 96 99 100 96 98 100 98 92 92 87 85 89 96 97 96 93 94 93 99 98 96 96 90 97 95 96 96 96 89 89 88 98 98 100 99 98 94 88 97 100 100 100 100 100 98 92 91 90 94 99 95
90 92 92 98 99 97 97 96 90 81 92 98 92 97 99 98 97 96 97 97 96 88 87 89 87 86 88 89 87 90 91 100 100 100 100 100 100 98 99 90 92 96 98 97 96 97 100 100 98 96 96 98 100 100
95 93 97 99 97 94 95 98 97 97 98 99 100 100 100 98 100 98 97 91 88 95 100 100 100 100 95 94 95 100 100 100 100 96 100 100 100 100 100 100 97 99 99 95 96 99 100 100 100 100 100 100 100 100
94 94 97 96 96 96 98 94 96 96 97 98 98 99 99 96 99 98 100 97 93 91 86 91 97 95 99 99 99 100 97 83 75 86 100 100 100 98 100 100 100 100 100 100 99 100 100 100 100 96 98 100 100 100
Wind_Speed
38 36 35 35 36 35 32 31 27 32 36 42 40 45 46 44 42 38 29 14 7 3 5 5 4 7 13 14 7 4 4 3 2 3 4 4 3 6 4 7 7 7 6 3 3 3 7 6 4 7 6 3 7 6
32 32 32 31 31 30 25 21 18 24 36 42 43 47 45 41 43 39 10 24 11 2 4 15 25 28 15 14 6 3 5 6 5 3 1 3 2 2 4 2 3 1 7 6 8 6 4 4 3 5 6 7 4 7
27 28 28 27 26 22 20 19 22 22 28 32 42 44 42 43 45 33 13 16 11 4 7 6 7 6 12 29 28 5 2 6 5 4 3 2 4 4 4 4 4 2 4 4 4 5 5 7 8 7 7 11 7 6
25 23 24 23 25 24 23 21 22 21 23 26 33 38 38 36 37 29 11 13 19 4 1 5 12 6 10 18 37 20 11 4 7 5 2 3 4 3 4 4 5 5 7 6 4 1 10 7 7 10 13 12 14 13
24 23 21 21 23 23 20 18 17 18 25 31 30 30 30 29 26 22 13 16 12 3 3 5 14 5 8 13 9 22 12 7 3 3 2 3 3 4 1 3 2 4 7 5 5 11 5 4 5 7 12 11 11 15
21 21 21 22 20 20 18 16 16 20 24 27 27 27 27 24 22 16 2 12 29 10 3 4 5 5 5 12 10 6 5 4 2 4 2 4 0 3 4 3 1 1 1 4 6 6 13 13 10 9 13 12 13 14
20 20 21 21 21 20 19 17 18 20 22 23 23 23 24 24 25 7 5 2 26 19 2 3 4 3 9 5 3 2 2 3 2 2 2 2 2 3 3 4 6 5 9 14 19 18 10 4 8 12 16 19 22 21
25 25 24 24 22 21 21 21 20 18 18 18 17 20 18 24 24 17 10 5 16 9 3 3 3 4 6 3 2 2 2 3 3 3 1 2 2 2 2 2 9 9 13 10 7 9 14 17 16 14 19 19 15 12
32 30 28 28 26 26 22 24 19 19 19 19 21 22 19 14 6 16 22 6 6 4 2 3 4 2 4 3 3 3 3 3 2 3 2 3 1 1 1 5 10 8 6 13 15 17 16 16 15 13 13 11 13 10
25 36 33 33 29 26 27 27 24 23 25 26 31 9 2 6 9 11 2 2 3 4 3 2 2 1 1 1 3 3 2 2 2 2 1 3 2 1 4 5 9 13 16 16 17 9 14 14 13 11 10 9 10 11
26 27 28 30 32 31 29 31 30 31 32 13 4 2 14 22 5 3 4 4 1 3 3 1 2 3 4 3 2 2 1 1 3 2 4 2 2 3 4 6 6 9 9 4 11 11 12 15 15 14 12 15 16 14
28 27 31 34 35 33 33 35 36 24 10 7 14 14 7 2 2 3 3 3 5 2 3 2 3 3 3 3 3 2 2 3 2 2 3 2 1 7 6 7 8 9 12 13 19 17 19 19 20 19 17 16 16 17
34 31 31 32 34 37 38 42 25 17 35 9 5 4 2 3 7 4 1 2 2 3 2 2 1 2 2 3 3 3 4 2 1 2 2 1 4 5 7 9 11 15 20 20 19 22 23 20 20 24 19 18 19 18
43 37 31 28 34 39 39 18 17 9 3 5 4 6 4 4 4 2 2 1 1 2 2 1 2 3 2 4 1 4 1 1 2 2 3 2 6 6 8 10 14 13 14 15 15 20 20 21 19 20 20 22 21 17
39 38 35 26 19 15 17 11 11 16 8 5 5 5 5 2 1 0 1 1 2 2 1 1 4 2 2 3 2 3 2 2 3 2 1 2 5 8 9 11 11 11 11 12 17 18 18 19 19 17 18 19 21 20
25 34 28 17 20 23 16 12 23 9 5 4 6 3 3 2 5 4 3 2 3 2 1 3 3 2 3 3 3 3 3 2 1 1 1 5 8 9 11 11 10 15 16 17 17 18 18 17 17 18 19 17 17 16
35 10 19 20 22 24 16 11 8 6 5 5 3 3 3 3 3 2 3 3 3 2 2 3 4 2 1 3 3 4 3 2 2 1 2 8 9 11 11 12 15 17 16 16 17 17 16 18 21 18 14 13 13 14
18 18 7 12 19 18 15 14 5 5 7 3 2 4 2 3 3 4 4 5 2 2 2 4 3 5 4 4 3 4 2 2 3 3 4 8 8 12 13 12 14 16 16 16 18 17 19 16 14 11 15 15 15 13
23 18 15 15 12 9 4 6 6 4 5 2 2 2 2 5 7 7 8 7 7 6 3 3 5 4 3 3 3 6 5 2 2 3 4 10 13 13 13 15 16 17 16 16 17 16 17 17 14 14 13 11 12 9
24 27 26 19 11 6 5 3 5 4 3 2 2 7 4 3 4 7 10 7 6 4 6 5 4 3 3 5 5 5 5 4 3 4 4 5 10 14 13 14 14 18 20 21 20 20 18 17 14 11 11 9 8 6
14 19 16 14 9 15 4 3 4 3 3 2 2 2 2 3 7 7 6 7 8 4 4 4 4 5 11 13 16 13 14 13 6 3 3 5 12 15 16 16 17 16 16 15 15 14 15 12 9 8 8 7 6 5
11 12 7 14 7 6 5 12 3 1 3 0 3 3 3 3 3 4 2 7 4 5 3 4 6 5 8 11 15 20 17 18 20 20 22 18 7 11 13 15 18 16 16 14 13 13 12 10 7 7 6 6 5 4
7 9 9 11 7 7 3 7 5 5 4 3 3 4 3 3 3 2 3 4 3 7 12 10 12 15 14 16 20 23 22 19 16 17 17 18 19 19 20 19 17 15 14 14 13 12 10 8 7 6 5 6 5 4
11 7 6 5 6 3 3 5 3 3 3 3 3 3 3 2 2 3 4 3 3 12 11 14 10 5 11 17 12 16 18 16 17 19 16 15 15 16 18 18 20 19 14 12 12 11 10 9 7 7 8 7 7 7
7 9 6 7 4 6 6 5 6 4 3 3 4 4 2 2 3 3 2 2 3 5 6 11 12 11 6 5 11 14 18 16 13 13 17 12 13 14 14 17 17 15 11 11 12 10 9 8 8 8 8 9 10 8
8 6 5 5 4 4 2 3 3 3 2 3 1 2 2 3 5 3 2 1 2 3 5 6 4 5 7 12 9 11 13 11 14 15 16 17 15 12 9 7 7 9 11 12 12 9 8 9 9 10 10 9 8 11
6 6 3 0 2 3 4 3 2 4 4 4 3 4 3 4 3 2 2 4 2 7 9 11 12 11 10 10 11 12 14 15 16 16 15 18 19 18 16 12 8 6 6 7 9 8 8 9 10 12 11 10 12 12
4 4 4 3 4 3 3 3 4 3 2 4 2 5 3 2 2 2 4 6 12 12 14 14 14 15 16 17 14 13 10 11 11 12 13 13 14 14 12 8 5 6 8 8 8 8 9 10 11 9 10 13 14 14
3 2 4 5 4 5 4 3 2 2 4 2 3 3 2 3 7 6 9 12 11 14 16 14 13 14 15 17 18 19 19 14 7 5 4 3 10 12 15 11 8 9 9 9 10 10 9 10 12 12 12 12 11 10
3 1 4 3 4 3 3 3 2 2 6 4 5 4 4 4 11 13 15 13 15 16 16 16 14 15 15 12 10 14 16 16 15 14 3 2 8 13 14 16 17 14 12 12 12 11 10 12 12 11 11 13 12 9
2 4 4 4 3 1 0 7 10 10 6 4 7 3 3 3 6 19 18 16 16 14 15 15 15 14 11 13 14 9 9 9 7 11 11 10 10 13 15 15 12 13 14 15 15 15 14 13 13 14 14 16 9 8
3 2 3 3 0 2 2 2 3 3 1 3 1 2 2 3 2 4 9 8 11 13 11 10 11 9 7 6 6 4 2 3 9 12 13 12 13 12 12 13 16 14 12 13 13 11 12 13 12 13 15 12 8 9
3 4 4 3 3 3 3 3 2 3 3 2 2 2 2 3 2 3 6 8 9 10 10 7 5 6 1 1 3 4 9 12 13 10 8 9 11 14 13 12 13 13 13 13 12 11 12 14 17 17 14 12 10 8
Wind_Direction
134 141 146 151 156 160 165 171 185 194 200 198 195 197 199 202 206 201 212 222 199 289 301 329 190 178 201 195 182 185 96 8 64 90 125 190 127 209 113 159 169 158 139 179 96 69 274 193 122 162 193 131 134 118
135 140 143 147 152 157 162 173 185 192 201 200 201 194 200 201 193 191 197 198 213 23 290 311 289 279 255 196 139 197 165 151 171 109 63 110 118 111 139 203 130 142 177 176 174 211 259 354 132 94 129 125 112 110
134 138 145 150 154 154 146 148 151 155 169 185 172 184 185 184 185 182 163 161 177 288 282 218 232 274 274 213 196 131 294 183 143 124 166 143 133 136 135 226 126 251 149 140 109 6 83 70 66 72 90 104 90 81
141 140 145 148 152 148 151 151 147 155 161 155 151 161 165 173 185 177 156 166 182 279 283 306 340 306 313 192 183 189 163 137 101 112 106 147 137 181 198 164 148 194 140 140 75 59 82 39 69 106 97 93 87 74
155 159 161 150 150 153 152 146 148 150 155 161 166 164 169 174 176 173 170 189 194 288 306 320 311 318 341 179 154 167 141 121 112 98 84 203 150 109 37 80 179 188 167 155 196 185 135 128 108 114 102 98 98 99
165 166 165 164 161 157 152 152 153 150 157 162 165 168 169 167 168 149 153 228 227 231 328 328 310 305 6 120 56 72 75 62 85 124 126 281 92 105 118 174 292 5 17 156 151 102 106 108 96 101 99 98 93 95
171 170 168 167 166 164 164 164 159 162 157 158 162 162 170 172 174 190 146 189 197 177 304 301 274 338 265 82 79 63 89 90 67 116 96 201 62 77 96 163 163 109 84 104 117 112 99 149 124 107 103 103 101 97
183 174 171 169 168 170 172 171 172 176 168 167 172 173 173 174 175 229 194 155 158 149 187 245 283 270 23 68 93 354 57 38 36 208 64 87 25 44 79 141 124 105 88 95 74 80 112 119 114 110 112 114 105 101
197 194 189 189 183 182 184 192 189 181 176 173 171 172 178 206 170 190 202 166 157 215 207 173 194 234 5 42 51 42 76 83 319 59 28 73 11 86 272 144 136 142 117 122 101 106 115 116 121 121 118 114 111 106
191 201 200 202 201 192 198 201 199 179 170 166 152 191 150 133 52 186 291 263 170 174 254 118 39 78 69 5 46 84 21 130 96 261 83 70 91 346 30 60 108 120 123 123 110 118 125 125 130 129 121 112 107 104
121 127 139 164 177 180 175 176 167 166 161 172 170 122 103 134 107 174 199 192 253 65 15 1 77 114 354 91 111 51 132 36 112 245 122 135 159 180 134 83 104 123 132 107 120 123 130 130 129 120 108 105 105 109
121 122 128 135 147 159 164 169 167 157 191 118 103 75 97 76 83 101 12 356 26 72 2 67 24 56 12 63 81 360 86 52 154 137 102 191 130 137 138 116 114 116 117 114 115 117 120 118 119 114 114 113 114 114
104 121 127 132 138 145 151 158 161 146 127 120 71 71 61 335 59 61 20 17 46 3 348 32 45 108 36 40 68 80 77 171 40 76 206 99 128 137 130 123 109 101 103 103 103 106 105 106 112 115 113 114 117 114
93 102 114 123 135 146 151 149 130 182 137 63 54 39 43 43 54 35 6 60 350 302 301 186 109 74 37 44 79 75 324 73 72 153 228 147 152 136 133 125 118 115 109 106 106 109 107 106 104 113 121 129 124 116
80 86 94 100 130 136 136 124 72 66 51 55 31 44 52 44 61 44 307 20 303 248 244 77 58 56 42 94 57 111 82 205 154 229 67 136 127 118 112 117 117 114 109 111 115 110 112 115 115 116 128 131 129 125
76 65 55 83 104 109 115 91 52 58 49 54 36 23 6 37 17 25 5 354 327 325 29 54 104 86 55 92 71 33 134 65 44 357 15 116 114 112 119 116 112 110 112 113 119 119 121 126 129 127 128 129 133 130
74 53 60 68 86 84 69 70 54 53 64 45 14 349 17 41 25 348 340 334 313 26 48 49 60 48 131 71 58 20 27 347 341 19 57 119 123 118 112 110 117 123 124 125 131 137 134 132 136 131 126 127 130 134
53 48 58 61 75 65 46 36 68 64 63 48 64 7 28 34 14 28 354 358 46 67 43 49 34 40 32 36 29 350 2 357 28 62 89 114 114 121 120 130 132 133 131 132 134 133 134 129 113 100 122 127 118 123
62 62 65 62 68 80 73 38 42 74 46 15 355 355 28 51 36 29 24 19 39 43 74 53 47 37 38 7 324 333 340 6 39 39 72 101 118 125 121 115 120 124 123 119 112 103 100 101 100 104 114 123 103 107
65 62 62 67 73 73 65 39 65 73 49 36 8 42 41 32 12 34 34 16 29 53 44 47 36 16 18 356 342 349 350 357 47 78 66 60 82 96 101 107 104 107 106 104 99 101 98 87 79 93 100 95 102 88
42 35 46 54 58 64 78 29 48 92 107 64 307 65 47 41 44 33 32 4 48 37 60 41 58 47 30 23 18 16 27 32 30 356 78 75 63 78 79 77 92 91 96 94 92 84 84 86 89 95 86 78 60 99
32 30 49 36 65 56 59 18 89 47 66 304 27 48 38 30 31 27 52 37 54 22 18 47 47 43 37 30 30 31 35 47 49 51 54 61 62 62 60 65 80 75 72 79 88 93 95 85 83 85 91 57 45 91
44 36 51 36 63 48 316 8 54 19 56 352 24 35 19 20 60 48 69 45 58 10 24 73 70 60 53 41 40 37 36 49 52 53 57 64 65 65 68 63 67 78 80 71 84 88 89 71 73 75 39 16 22 27
50 52 47 52 54 65 9 26 48 57 43 24 55 37 21 21 63 63 70 51 13 13 23 28 47 58 48 43 38 28 25 44 54 49 50 69 72 63 67 65 65 70 75 80 78 74 67 61 48 30 19 14 11 357
64 359 63 13 0 58 40 21 10 44 46 27 61 3 337 23 69 64 77 78 17 16 7 25 48 46 53 45 32 28 44 56 57 59 39 71 91 89 77 74 68 60 49 51 47 44 39 27 24 23 16 10 356 345
69 10 51 33 28 52 48 61 34 19 61 51 35 326 35 68 58 46 57 71 358 9 2 9 57 58 52 48 44 30 26 53 76 69 44 59 71 85 75 65 45 42 38 33 25 24 27 15 8 0 350 1 6 355
62 40 349 18 122 65 38 30 53 68 53 30 341 9 40 64 69 79 96 36 76 53 56 64 65 64 60 51 55 49 60 67 81 89 86 73 65 57 52 56 54 42 10 9 11 10 360 350 341 339 338 340 335 330
61 49 62 353 39 31 81 50 53 45 16 338 37 36 81 81 61 36 25 24 113 92 80 78 76 75 72 65 62 57 98 101 101 97 89 82 68 55 51 39 26 12 358 344 344 341 335 334 337 347 334 327 332 327
53 11 78 25 34 43 32 52 86 44 358 353 76 67 81 62 4 27 34 66 87 87 74 79 84 87 79 69 62 56 55 58 79 56 35 345 2 3 8 16 12 355 348 337 331 330 325 325 324 324 322 324 329 340
320 73 86 57 67 57 7 50 84 50 32 77 103 94 73 72 33 59 59 75 85 85 85 82 78 77 68 64 62 51 40 39 43 51 64 331 334 332 333 335 331 325 321 323 325 329 325 324 324 326 328 323 316 321
28 43 61 67 85 263 81 110 109 79 57 52 41 98 129 144 72 54 65 76 92 81 76 68 60 47 46 42 35 29 31 33 25 5 359 347 338 338 339 346 353 341 331 325 324 323 320 325 329 328 327 326 297 302
32 78 109 93 97 277 55 133 163 118 101 75 106 75 41 67 63 42 24 39 68 63 58 57 38 27 26 34 29 34 27 340 337 337 329 326 328 333 334 335 335 337 342 347 349 343 347 345 351 355 354 344 319 323
39 40 43 61 35 14 311 83 60 71 46 66 38 109 78 110 130 139 61 47 55 39 23 6 342 327 153 10 9 352 335 332 331 335 339 354 353 339 339 340 338 337 336 336 335 332 334 336 336 335 332 327 328 323